Regional Weather Roundup
Issued by NWS

Home | Current Version | Previous Version | Graphics & Text | Print | Product List | Glossary On
Versions: 1 2 3 4 5 6 7 8 9 10 11 12 13 14 15 16 17 18 19 20 21 22 23 24 25 26 27 28 29 30 31 32 33 34 35 36 37 38 39 40 41 42 43 44 45 46 47 48 49 50
000
ASUS43 KMPX 231201
RWRMN
WEATHER ROUNDUP FOR MINNESOTA
NATIONAL WEATHER SERVICE TWIN CITIES/CHANHASSEN MN
700 AM CDT TUE SEP 23 2014


NOTE: "FAIR" INDICATES FEW OR NO CLOUDS BELOW 12,000 FEET WITH NO
SIGNIFICANT WEATHER AND/OR OBSTRUCTIONS TO VISIBILITY. N/A MEANS
CURRENT SKY AND/OR WEATHER CONDITIONS ARE NOT AVAILABLE.

MNZ060>063-068>070-231300-
   Twin Cities Metro

CITY           SKY/WX    TMP DP  RH WIND       PRES   REMARKS
TWIN CITIES    PTCLDY    52  47  83 E5        30.20S
6HR MIN TEMP:  51; 6HR MAX TEMP:  57;

ST PAUL        CLEAR     49  48  97 SE6       30.22R
CRYSTAL        CLEAR     48  45  89 CALM      30.19R
BLAINE         CLEAR     52  50  93 SE3       30.20S
LAKEVILLE      CLEAR     45  43  93 CALM      30.21S
EDEN PRAIRIE   CLEAR     50  48  93 CALM      30.19S
6HR MIN TEMP:  50; 6HR MAX TEMP:  56;

SOUTH ST PAUL  CLEAR     50  48  93 CALM      30.20F
LAKE ELMO      FAIR      45  45 100 CALM      30.22S
$$
MNZ001>005-007-008-013>017-022>024-027-028-231300-
   Northwest Minnesota

CITY           SKY/WX    TMP DP  RH WIND       PRES   REMARKS
BEMIDJI        FOG       39  39 100 SE3       30.12S VSB 1/4
HALLOCK        CLEAR     52  48  87 CALM      30.02S
ROSEAU         CLEAR     50  45  81 S6        30.06S
WARROAD        CLEAR     50  46  87 S6        30.07S
THIEF RVR FALL CLEAR     50  46  87 SE7       30.07R
CROOKSTON      CLEAR     52  48  87 SE8       30.05S
FOSSTON        CLEAR     52  48  87 SE6       30.09R
DETROIT LAKES  CLEAR     54  50  87 SE5       30.10S
MOORHEAD       CLEAR     57  52  82 S10       30.06S
PARK RAPIDS    CLEAR     49  46  90 SE7       30.12S
MAHNOMEN       FAIR      53  48  85 SE7       30.08S
$$
MNZ006-009>011-018-025>026-231300-
   North Central Minnesota

CITY           SKY/WX    TMP DP  RH WIND       PRES   REMARKS
BAUDETTE       CLEAR     47  45  93 CALM      30.10R
FLAG ISLAND    CLEAR     57  54  88 SE9       30.06R
INTL FALLS     CLEAR     43  42  97 SE3       30.13R
6HR MIN TEMP:  38; 6HR MAX TEMP:  45;

WASKISH        CLEAR     48  46  93 CALM      30.11R
BIG FORK       CLEAR     37  36  93 CALM      30.15S
LONGVILLE      CLEAR     39  39 100 CALM      30.15R
GRAND RAPIDS   CLEAR     46  43  87 S6        30.16S
CRANE LAKE     CLEAR     37  37 100 CALM      30.18R
ORR            CLEAR     48  45  87 CALM      30.14S
COOK           CLEAR     39  39 100 CALM      30.17S
WALKER         FAIR      47  45  95 S5        30.13S
$$
MNZ012-019>021-037-231300-
   Northeast Minnesota

CITY           SKY/WX    TMP DP  RH WIND       PRES   REMARKS
DULUTH         CLEAR     51  46  83 W5        30.19R
6HR MIN TEMP:  50; 6HR MAX TEMP:  56;

ELY            CLEAR     37  37 100 CALM      30.18R
HIBBING        FOG       38  36  92 CALM      30.18R VSB 1/2
EVELETH        FOG       36  36 100 CALM      30.19R VSB<1/4
DULUTH HARBOR  CLEAR     52  48  87 SW3       30.19S
TWO HARBORS    CLEAR     46  41  81 CALM      30.17S
SILVER BAY     CLEAR     43  43 100 CALM      30.17R
GRAND MARAIS     N/A     52  49  89 N3        30.16R
G MARAIS ARPRT CLEAR     50  45  81 CALM      30.20R
$$
MNZ029>031-032-039>041-046>048-054>057-064-231300-
   West Central Minnesota

CITY           SKY/WX    TMP DP  RH WIND       PRES   REMARKS
FERGUS FALLS   CLEAR     55  46  71 SE9       30.10R
WHEATON        CLEAR     48  46  93 SE10      30.09S
MORRIS         CLEAR     50  48  93 SE9       30.10R
ALEXANDRIA     CLEAR     51  47  86 SE8       30.14R
ELBOW LAKE     FAIR      51  48  89 SE8       30.10R
WADENA         CLEAR     46  45  93 SE5       30.12S
GLENWOOD       CLEAR     48  46  93 SE7       30.14S
APPLETON       PTCLDY    52  48  87 SE6       30.11R
BENSON         PTCLDY    50  46  87 S8        30.12S
ORTONVILLE     PTCLDY    48  46  93 SE7       30.09S
MADISON        MOCLDY    54  50  87 SE6       30.10S
WILLMAR        FAIR      50  46  87 SE7       30.16S
$$
MNZ033>034-036-042>043-049>051-058-059-231300-
   Central Minnesota

CITY           SKY/WX    TMP DP  RH WIND       PRES   REMARKS
ST CLOUD       CLEAR     50  47  89 E3        30.18R
6HR MIN TEMP:  47; 6HR MAX TEMP:  52;

SAUK CENTRE    FAIR      48  46  90 SE7       30.16R
PAYNESVILLE    CLEAR     49  47  93 E7        30.17R
AITKIN           N/A     43  37  81 CALM      30.16R HAZE
PINE RIVER     MOCLDY    45  45 100 CALM      30.18S FOG
BRAINERD       FOG       43  42  97 CALM      30.17R VSB 1/4
STAPLES        CLEAR     45  45 100 CALM      30.14S
LONG PRAIRIE   FAIR      46  45  93 SE3       30.15S
LITTLE FALLS   CLEAR     46  45  93 SE3       30.16S
LITCHFIELD     FAIR      50  48  93 SE3       30.17S
BUFFALO        CLEAR     50  47  88 CALM      30.20R
MAPLE LAKE     CLEAR     49  49  97 CALM      30.19R
$$
MNZ037-044-045-052-053-231300-
   East Central Minnesota

CITY           SKY/WX    TMP DP  RH WIND       PRES   REMARKS
PRINCETON      CLEAR     45  43  93 CALM      30.19R
MORA           CLEAR     39  37  93 CALM      30.21R FOG
CAMBRIDGE      CLEAR     52  45  76 CALM      30.18R
RUSH CITY        N/A     43  42  97 CALM      30.20S FOG
MOOSE LAKE     FOG       37  37 100 CALM      30.18S VSB 1/2
HINCKLEY         N/A     41  41 100 CALM      30.20R FOG
CLOQUET        CLEAR     48  46  93 S2        30.19R
$$
MNZ071>073-080-081-089-090-097-098-231300-
   Southwest Minnesota

CITY           SKY/WX    TMP DP  RH WIND       PRES   REMARKS
MONTEVIDEO     PTCLDY    50  48  93 S7        30.13S
GRANITE FALLS  MOCLDY    50  47  91 SE7       30.15S
CANBY          MOCLDY    48  47  94 CALM      30.11S
MARSHALL       MOCLDY    55  46  71 S12       30.11S
REDWOOD FALLS  MOCLDY    47  45  93 SE7       30.15S
OLIVIA         PTCLDY    50  45  81 SE7       30.15S
PIPESTONE      CLOUDY    52  48  87 SE8       30.13S
WINDOM         MOCLDY    52  48  87 SE5       30.17S
WORTHINGTON    MOCLDY    52  46  82 S5        30.17R
JACKSON        PTCLDY    52  46  82 S7        30.18S
TRACY          CLOUDY    54  48  82 S8        30.14S
SLAYTON        MOCLDY    47  47  98 CALM      30.15S
$$
MNZ065>067-074>077-082>085-091>093-231300-
   South Central Minnesota

CITY           SKY/WX    TMP DP  RH WIND       PRES   REMARKS
MANKATO        CLEAR     50  45  81 S8        30.20R
NEW ULM        CLEAR     46  46 100 S7        30.18R
ST JAMES       PTCLDY    48  45  87 SE3       30.19S
FAIRMONT       PTCLDY    48  43  81 S8        30.20R
GLENCOE        CLEAR     49  45  86 SE5       30.18S
FARIBAULT      CLEAR     48  45  87 CALM      30.22S
OWATONNA       CLEAR     52  46  82 SE8       30.22S
WASECA         CLEAR     46  41  81 SE3       30.23S
ALBERT LEA     CLEAR     50  48  93 CALM      30.23R
$$
MNZ078>079-086>088-094>096-231300-
   Southeast Minnesota

CITY           SKY/WX    TMP DP  RH WIND       PRES   REMARKS
ROCHESTER      CLEAR     47  45  93 S8        30.25R
6HR MIN TEMP:  46; 6HR MAX TEMP:  50;

RED WING       CLEAR     46  45  93 E3        30.22S
STANTON        CLEAR     48  45  90 CALM      30.20S
DODGE CENTER   CLEAR     46  46 100 S7        30.23S
WINONA         FOG       50  50 100 CALM      30.26R VSB 1/4
AUSTIN         PTCLDY    46  46 100 S3        30.24R
PRESTON        CLEAR     46  46 100 S6        30.26R
$$
ABBREVIATIONS USED IN REMARKS
   TC - TEMPERATURES IN CELSIUS
  WCI - WIND CHILL INDEX
   HX - HEAT INDEX
  VSB - VISIBILITY
$$


USA.gov is the U.S. government's official web portal to all federal, state and local government web resources and services.